Hourly Weather Rudnya

Today, 16 April, Friday

Time Temperature Precipitation Wind Pressure Humidity
00:00 +7°C° 0 mm 5 mps 743 mmHg 94%
01:00 +7°C° 0 mm 5 mps 743 mmHg 94%
02:00 +7°C° 0 mm 4 mps 743 mmHg 94%
03:00 +7°C° 0.1 mm 4 mps 743 mmHg 95%
04:00 +8°C° 0.1 mm 3 mps 743 mmHg 96%
05:00 +8°C° 0.1 mm 3 mps 743 mmHg 97%
06:00 +8°C° 0.3 mm 3 mps 743 mmHg 95%
07:00 +7°C° 0.3 mm 4 mps 743 mmHg 94%
08:00 +8°C° 0.3 mm 4 mps 743 mmHg 92%
09:00 +10°C° 0.2 mm 4 mps 743 mmHg 83%
10:00 +12°C° 0.2 mm 5 mps 743 mmHg 74%
11:00 +13°C° 0.2 mm 5 mps 743 mmHg 65%
12:00 +14°C° 0.5 mm 6 mps 743 mmHg 63%
13:00 +14°C° 0.5 mm 6 mps 743 mmHg 61%
14:00 +14°C° 0.5 mm 6 mps 743 mmHg 60%
15:00 +13°C° 0.3 mm 6 mps 744 mmHg 62%
16:00 +13°C° 0.3 mm 5 mps 744 mmHg 64%
17:00 +12°C° 0.3 mm 5 mps 744 mmHg 65%
18:00 +11°C° 0 mm 4 mps 744 mmHg 71%
19:00 +10°C° 0 mm 3 mps 745 mmHg 77%
20:00 +8°C° 0 mm 2 mps 745 mmHg 83%
21:00 +8°C° 0.1 mm 3 mps 745 mmHg 86%
22:00 +8°C° 0.1 mm 3 mps 745 mmHg 89%
23:00 +7°C° 0.1 mm 3 mps 745 mmHg 91%

Tomorrow, 17 April, Saturday

Time Temperature Precipitation Wind Pressure Humidity
00:00 +7°C° 0 mm 3 mps 745 mmHg 93%
01:00 +5°C° 0 mm 3 mps 746 mmHg 94%
02:00 +5°C° 0 mm 3 mps 746 mmHg 95%
03:00 +6°C° 0 mm 2 mps 746 mmHg 95%
04:00 +5°C° 0 mm 2 mps 746 mmHg 95%
05:00 +5°C° 0 mm 2 mps 746 mmHg 95%
06:00 +6°C° 0 mm 2 mps 747 mmHg 90%
07:00 +7°C° 0 mm 3 mps 747 mmHg 85%
08:00 +9°C° 0 mm 3 mps 748 mmHg 79%
09:00 +10°C° 0.1 mm 3 mps 748 mmHg 74%
10:00 +11°C° 0.1 mm 3 mps 748 mmHg 68%
11:00 +12°C° 0.1 mm 3 mps 748 mmHg 62%
12:00 +13°C° 0.1 mm 3 mps 748 mmHg 58%
13:00 +13°C° 0.1 mm 4 mps 748 mmHg 54%
14:00 +14°C° 0.1 mm 4 mps 748 mmHg 50%
15:00 +14°C° 0 mm 3 mps 748 mmHg 51%
16:00 +14°C° 0 mm 3 mps 748 mmHg 52%
17:00 +15°C° 0 mm 2 mps 748 mmHg 54%
18:00 +12°C° 0.3 mm 3 mps 748 mmHg 65%
19:00 +11°C° 0.3 mm 3 mps 748 mmHg 76%
20:00 +8°C° 0.3 mm 4 mps 748 mmHg 88%
21:00 +8°C° 0.5 mm 4 mps 748 mmHg 89%
22:00 +8°C° 0.5 mm 4 mps 748 mmHg 91%
23:00 +8°C° 0.5 mm 4 mps 747 mmHg 92%

Day after tomorrow, 18 April, Sunday

Time Temperature Precipitation Wind Pressure Humidity
00:00 +8°C° 0.3 mm 4 mps 747 mmHg 91%
01:00 +8°C° 0.3 mm 4 mps 747 mmHg 90%
02:00 +8°C° 0.3 mm 4 mps 747 mmHg 89%
03:00 +7°C° 0 mm 4 mps 747 mmHg 90%
04:00 +6°C° 0 mm 4 mps 747 mmHg 91%
05:00 +6°C° 0 mm 4 mps 747 mmHg 92%
06:00 +6°C° 0 mm 5 mps 747 mmHg 87%
07:00 +7°C° 0 mm 5 mps 748 mmHg 82%
08:00 +7°C° 0 mm 6 mps 748 mmHg 78%
09:00 +8°C° 0 mm 6 mps 748 mmHg 73%
10:00 +9°C° 0 mm 6 mps 748 mmHg 69%
11:00 +9°C° 0 mm 6 mps 748 mmHg 65%
12:00 +10°C° 0 mm 5 mps 748 mmHg 63%
13:00 +10°C° 0 mm 5 mps 749 mmHg 61%
14:00 +10°C° 0 mm 5 mps 749 mmHg 59%
15:00 +10°C° 0 mm 5 mps 749 mmHg 61%
16:00 +11°C° 0 mm 4 mps 749 mmHg 63%
17:00 +10°C° 0 mm 4 mps 749 mmHg 65%
18:00 +8°C° 0 mm 4 mps 749 mmHg 71%
19:00 +7°C° 0 mm 4 mps 749 mmHg 77%
20:00 +7°C° 0 mm 3 mps 750 mmHg 82%
21:00 +5°C° 0 mm 3 mps 750 mmHg 87%
22:00 +4°C° 0 mm 3 mps 750 mmHg 91%
23:00 +4°C° 0 mm 3 mps 750 mmHg 95%

19 April, Monday

Time Temperature Precipitation Wind Pressure Humidity
00:00 +3°C° 0 mm 3 mps 750 mmHg 95%
01:00 +3°C° 0 mm 3 mps 749 mmHg 95%
02:00 +3°C° 0 mm 3 mps 749 mmHg 95%
03:00 +3°C° 0 mm 3 mps 749 mmHg 93%
04:00 +3°C° 0 mm 3 mps 749 mmHg 92%
05:00 +3°C° 0 mm 3 mps 749 mmHg 91%
06:00 +3°C° 0 mm 3 mps 749 mmHg 89%
07:00 +4°C° 0 mm 3 mps 749 mmHg 86%
08:00 +4°C° 0 mm 3 mps 749 mmHg 84%
09:00 +5°C° 0 mm 4 mps 749 mmHg 82%
10:00 +6°C° 0 mm 4 mps 749 mmHg 79%
11:00 +6°C° 0 mm 4 mps 749 mmHg 77%
12:00 +7°C° 0 mm 4 mps 749 mmHg 75%
13:00 +7°C° 0 mm 4 mps 748 mmHg 73%
14:00 +8°C° 0 mm 4 mps 748 mmHg 72%
15:00 +8°C° 0.1 mm 4 mps 748 mmHg 73%
16:00 +8°C° 0.1 mm 4 mps 748 mmHg 74%
17:00 +7°C° 0.1 mm 4 mps 747 mmHg 75%
18:00 +7°C° 0 mm 4 mps 747 mmHg 78%
19:00 +7°C° 0 mm 4 mps 747 mmHg 80%
20:00 +6°C° 0 mm 4 mps 746 mmHg 82%
21:00 +6°C° 0 mm 4 mps 746 mmHg 84%
22:00 +6°C° 0 mm 5 mps 746 mmHg 85%
23:00 +5°C° 0 mm 5 mps 745 mmHg 87%

20 April, Tuesday

Time Temperature Precipitation Wind Pressure Humidity
00:00 +5°C° 0.1 mm 5 mps 745 mmHg 88%
01:00 +5°C° 0.1 mm 5 mps 744 mmHg 89%
02:00 +5°C° 0.1 mm 5 mps 744 mmHg 91%
03:00 +5°C° 0 mm 5 mps 743 mmHg 91%
04:00 +5°C° 0 mm 5 mps 743 mmHg 91%
05:00 +5°C° 0 mm 4 mps 742 mmHg 91%
06:00 +5°C° 0 mm 5 mps 742 mmHg 90%
07:00 +5°C° 0 mm 5 mps 742 mmHg 88%
08:00 +6°C° 0 mm 5 mps 741 mmHg 87%
09:00 +6°C° 0.1 mm 5 mps 741 mmHg 87%
10:00 +6°C° 0.1 mm 5 mps 740 mmHg 87%
11:00 +5°C° 0.1 mm 6 mps 740 mmHg 86%
12:00 +5°C° 0 mm 6 mps 739 mmHg 86%
13:00 +5°C° 0 mm 6 mps 739 mmHg 85%
14:00 +5°C° 0 mm 6 mps 738 mmHg 84%
15:00 +5°C° 0.3 mm 7 mps 737 mmHg 84%
16:00 +5°C° 0.3 mm 7 mps 737 mmHg 85%
17:00 +5°C° 0.3 mm 7 mps 736 mmHg 85%
18:00 +4°C° 1.4 mm 7 mps 736 mmHg 88%
19:00 +4°C° 1.4 mm 7 mps 735 mmHg 92%
20:00 +3°C° 1.4 mm 7 mps 735 mmHg 95%
21:00 +3°C° 0.9 mm 7 mps 735 mmHg 95%
22:00 +2°C° 0.9 mm 6 mps 734 mmHg 96%
23:00 +2°C° 0.9 mm 6 mps 734 mmHg 96%

21 April, Wednesday

Time Temperature Precipitation Wind Pressure Humidity
00:00 +2°C° 0.7 mm 5 mps 734 mmHg 96%
01:00 +2°C° 0.7 mm 5 mps 734 mmHg 96%
02:00 +1°C° 0.7 mm 5 mps 733 mmHg 96%
03:00 +1°C° 0.2 mm 5 mps 733 mmHg 96%
04:00 +1°C° 0.2 mm 5 mps 733 mmHg 96%
05:00 +1°C° 0.2 mm 5 mps 733 mmHg 96%
06:00 +1°C° 0.1 mm 5 mps 733 mmHg 96%
07:00 +1°C° 0.1 mm 5 mps 734 mmHg 96%
08:00 +1°C° 0.1 mm 5 mps 734 mmHg 96%
09:00 +2°C° 0.1 mm 5 mps 734 mmHg 96%
10:00 +2°C° 0.1 mm 6 mps 735 mmHg 95%
11:00 +2°C° 0.1 mm 6 mps 735 mmHg 95%
12:00 +3°C° 0.1 mm 5 mps 735 mmHg 92%
13:00 +5°C° 0.1 mm 5 mps 736 mmHg 89%
14:00 +5°C° 0.1 mm 5 mps 736 mmHg 86%
15:00 +6°C° 0 mm 5 mps 737 mmHg 82%
16:00 +7°C° 0 mm 5 mps 737 mmHg 78%
17:00 +7°C° 0 mm 5 mps 738 mmHg 74%
18:00 +6°C° 0 mm 4 mps 738 mmHg 77%
19:00 +5°C° 0 mm 4 mps 739 mmHg 80%
20:00 +4°C° 0 mm 3 mps 739 mmHg 83%
21:00 +4°C° 0 mm 3 mps 740 mmHg 86%
22:00 +4°C° 0 mm 3 mps 740 mmHg 89%
23:00 +3°C° 0 mm 3 mps 741 mmHg 91%
Show more